[[{"header":{"parameterUnit":"m.s-1","parameterCategory":1,"la1":30.2991,"la2":30.254,"lo1":-89.0895,"lo2":-89.0444,"dy":0.0017,"dx":0.0017,"nx":28,"ny":28,"refTime":"2024-09-30T21:00:00:Z","depth":0,"parameterNumber":2,"parameterNumberName":"U-component_of_WINDS"},"data":[0,0,0,0,0,0,0,0,0,0,0,0,0,0,0,0,0,0,0,0,0,0,0,0,0,0,0,0,0,0,0,0,0,0,0,0,0,0,0,0,0,0,0,0,0,0,0,0,0,0,0,0,0,0,0,0,0,0,2.1238,2.1238,0,2.1303,2.1304,2.1305,2.1253,2.1251,2.1249,2.1247,2.1315,2.1319,2.1322,0,0,0,0,0,0,0,0,0,0,0,0,0,2.1067,2.1071,2.1237,2.1238,2.1239,2.1303,2.1304,2.1305,2.1254,2.1251,2.1248,2.1246,2.1314,2.1318,2.1323,0,0,0,0,0,0,0,0,0,0,0,0,0,2.1138,2.1072,2.1237,2.1221,2.1221,2.1303,2.1304,2.1305,2.1254,2.1251,2.1248,2.1245,2.1312,2.1318,2.1323,2.1425,0,0,2.1341,2.1344,0,0,0,0,0,0,0,0,2.1134,2.1144,2.1223,2.1223,2.1222,2.1267,2.1269,2.1345,2.1255,2.1242,2.1247,2.1243,2.1302,2.1308,2.1328,2.1428,2.1431,2.1342,2.1345,2.1348,2.1349,0,0,0,0,0,0,0,2.1129,2.1141,2.1263,2.1224,2.1223,2.1211,2.1217,2.1283,2.1289,2.1242,2.1239,2.1247,2.1301,2.1322,2.1329,2.1432,2.1341,2.1347,2.135,2.1352,2.1619,2.1623,0,0,0,0,0,0,2.1126,2.1137,2.1261,2.1265,2.1169,2.1216,2.1224,2.1256,2.1288,2.129,2.125,2.1245,2.1314,2.1322,2.1331,2.1452,2.1348,2.1353,2.1356,2.1616,2.162,2.1624,0,0,0,0,0,0,2.1122,2.1137,2.1259,2.12,2.1215,2.1223,2.1259,2.1259,2.128,2.1294,2.1295,2.1271,2.1312,2.1323,2.1402,2.1454,2.1356,2.1361,2.1611,2.1617,2.1622,2.1695,0,0,0,0,0,0,2.1118,2.1136,2.1175,2.1202,2.1218,2.1329,2.1263,2.1262,2.129,2.1284,2.1314,2.1316,2.131,2.1394,2.1408,2.146,2.1365,2.1607,2.1614,2.162,2.1688,2.1703,2.1715,0,0,0,0,0,2.1112,2.1194,2.1178,2.1193,2.1267,2.1332,2.1341,2.1333,2.1295,2.1334,2.1342,2.1315,2.1446,2.1402,2.1418,2.1472,2.1604,2.1612,2.162,2.1682,2.17,2.1714,0,0,0,0,0,0,2.1173,2.1197,2.1179,2.1272,2.1301,2.1323,2.1372,2.1352,2.1391,2.1384,2.1371,2.1379,2.1462,2.1475,2.1426,2.1572,2.1518,2.153,2.1561,2.1577,2.159,2.1586,2.137,0,0,0,0,0,2.1198,2.1249,2.1266,2.1346,2.1361,2.1365,2.1393,2.1383,2.1412,2.1424,2.1439,2.1468,2.1515,2.1547,2.1592,2.169,2.1695,2.1735,2.1748,2.1759,2.1769,2.1822,2.1839,2.1651,2.1651,2.165,0,0,2.1249,2.1268,2.1301,2.1359,2.138,2.1433,2.1375,2.1434,2.1472,2.1433,2.1508,2.152,2.1552,2.1641,2.1681,2.1654,2.1822,2.1769,2.1778,2.1782,2.1832,2.185,2.1866,2.1656,2.1655,2.1654,0,0,2.1368,2.1388,2.1457,2.1479,2.1511,2.1512,2.1529,2.1555,2.1561,2.1637,2.1608,2.1654,2.1736,2.176,2.1783,2.1911,2.1887,2.1925,2.1995,2.2046,2.2061,2.2074,2.2119,2.2136,2.1935,2.1936,2.1936,0,2.1428,2.1506,2.1495,2.1555,2.1582,2.1548,2.1617,2.1639,2.1685,2.1704,2.1673,2.1775,2.1794,2.1888,2.1919,2.1939,2.1957,2.1922,2.206,2.2073,2.2085,2.2128,2.2145,2.194,2.194,2.1939,2.1939,0,2.1577,2.1632,2.1684,2.1728,2.176,2.1825,2.1823,2.1857,2.1845,2.185,2.1927,2.1948,2.1996,2.2018,2.2006,2.211,2.2092,2.2061,2.2007,2.2107,2.2148,2.2164,2.1947,2.1945,2.1944,2.1943,0,0,2.1739,2.1775,2.1795,2.1814,2.1847,2.1889,2.1952,2.1998,2.2028,2.206,2.2112,2.2182,2.2153,2.2179,2.217,2.2215,2.2315,2.2178,2.2178,2.2203,2.243,2.2453,2.2473,2.2298,2.2302,2.2304,2.2427,0,2.186,2.197,2.1961,2.2065,2.2115,2.2083,2.2138,2.2164,2.2169,2.2213,2.2219,2.2269,2.2226,2.2242,2.2285,2.2293,2.236,2.2284,2.2347,2.235,2.2341,2.2494,2.2519,2.2634,2.2443,2.2445,2.2447,0,2.2017,2.2054,2.2163,2.2187,2.2208,2.2257,2.2299,2.2341,2.2369,2.237,2.2399,2.2382,2.2445,2.2389,2.2476,2.2424,2.2449,2.2457,2.2461,2.2467,2.2405,2.2504,2.2671,2.2688,2.2472,2.247,2.2468,0,2.2123,2.2201,2.2276,2.2293,2.2324,2.2359,2.2374,2.2399,2.2427,2.2463,2.2482,2.2525,2.2549,2.2583,2.2578,2.2538,2.2666,2.261,2.2669,2.2669,2.2698,2.2696,2.2871,2.2714,2.2713,2.2713,2.2713,0,2.226,2.2328,2.2324,2.237,2.2445,2.2434,2.2508,2.2518,2.2541,2.2588,2.2563,2.2608,2.2598,2.2643,2.264,2.2712,2.2723,2.2725,2.2723,2.2728,2.2727,2.2744,2.2736,2.2718,2.2717,2.2716,2.2715,0,2.2393,2.2393,2.2472,2.2494,2.2501,2.2556,2.2574,2.2618,2.2621,2.2681,2.2694,2.27,2.2751,2.2749,2.2807,2.2805,2.2894,2.2883,2.2884,2.2882,2.2941,2.2936,2.3133,2.3158,2.2984,2.2986,2.2987,0,2.248,2.2531,2.2559,2.2589,2.2605,2.2654,2.2682,2.2673,2.2704,2.274,2.2779,2.2828,2.2866,2.2949,2.2958,2.3003,2.2992,2.3059,2.2999,2.3001,2.2994,2.2991,2.2996,2.3071,2.3073,2.3074,2.3075,0,2.2635,2.2633,2.2675,2.2718,2.2753,2.2786,2.2816,2.2842,2.2836,2.2872,2.2924,2.2954,2.3013,2.3061,2.3103,2.3118,2.3096,2.3094,2.311,2.3115,2.3114,2.3115,2.2916,2.309,2.3088,2.3087,2.3086,2.3086,2.2748,2.2792,2.2818,2.2866,2.2888,2.2917,2.2958,2.2967,2.301,2.3057,2.3049,2.3107,2.3133,2.3187,2.3205,2.325,2.3227,2.325,2.3256,2.3262,2.3269,2.3106,2.3258,2.3258,2.3257,2.3257,2.3257,0,2.2902,2.2917,2.2961,2.3005,2.3042,2.3018,2.305,2.3083,2.3134,2.3161,2.3199,2.3258,2.3305,2.3317,2.3362,2.3396,2.3387,2.3408,2.3406,2.3409,2.3287,2.3269,2.3414,2.3414,2.3414,2.3414,2.3414,2.3414,2.2987,2.306,2.306,2.3144,2.3158,2.3215,2.3235,2.3261,2.3282,2.3349,2.3388,2.3395,2.3416,2.3462,2.3504,2.3506,2.3524,2.3549,2.3548,2.3434,2.3418,2.3403,2.3386,2.3553,2.3553,2.3666,2.3667,2.3668]},{"header":{"parameterUnit":"m.s-1","parameterCategory":1,"la1":30.2991,"la2":30.254,"lo1":-89.0895,"lo2":-89.0444,"dy":0.0017,"dx":0.0017,"nx":28,"ny":28,"refTime":"2024-09-30T21:00:00:Z","depth":0,"parameterNumber":3,"parameterNumberName":"V-component_of_WINDS"},"data":[0,0,0,0,0,0,0,0,0,0,0,0,0,0,0,0,0,0,0,0,0,0,0,0,0,0,0,0,0,0,0,0,0,0,0,0,0,0,0,0,0,0,0,0,0,0,0,0,0,0,0,0,0,0,0,0,0,0,0.5484,0.5484,0,0.5473,0.5473,0.5473,0.5415,0.5414,0.5412,0.5411,0.5401,0.5402,0.5403,0,0,0,0,0,0,0,0,0,0,0,0,0,0.5455,0.5456,0.5484,0.5484,0.5484,0.5473,0.5473,0.5473,0.5415,0.5414,0.5412,0.541,0.54,0.5402,0.5403,0,0,0,0,0,0,0,0,0,0,0,0,0,0.5458,0.5456,0.5484,0.5454,0.5451,0.5473,0.5473,0.5472,0.5416,0.5414,0.5411,0.541,0.54,0.5401,0.5403,0.5454,0,0,0.5408,0.5408,0,0,0,0,0,0,0,0,0.5458,0.5459,0.5458,0.5456,0.5453,0.5443,0.5459,0.5466,0.5416,0.5429,0.5411,0.5409,0.5417,0.5417,0.5419,0.5453,0.5453,0.5408,0.5409,0.5409,0.541,0,0,0,0,0,0,0,0.5458,0.5459,0.548,0.5458,0.5455,0.544,0.5439,0.546,0.5435,0.5428,0.5424,0.5423,0.5415,0.5418,0.5418,0.5452,0.5408,0.5409,0.541,0.5411,0.5524,0.5526,0,0,0,0,0,0,0.5462,0.5459,0.548,0.5479,0.545,0.5443,0.5441,0.5448,0.5434,0.543,0.5425,0.542,0.5416,0.5417,0.5418,0.5474,0.5409,0.5411,0.5412,0.5521,0.5524,0.5526,0,0,0,0,0,0,0.5461,0.5464,0.548,0.5468,0.5469,0.5445,0.5454,0.5449,0.5452,0.5432,0.5427,0.5433,0.5415,0.5416,0.5444,0.5473,0.5411,0.5413,0.5519,0.5522,0.5525,0.5587,0,0,0,0,0,0,0.5461,0.5464,0.5484,0.5469,0.547,0.5508,0.5456,0.545,0.5455,0.5449,0.5438,0.5434,0.5413,0.5442,0.5446,0.5474,0.5414,0.5516,0.552,0.5524,0.5583,0.5592,0.56,0,0,0,0,0,0.546,0.5503,0.5485,0.5488,0.5494,0.5509,0.551,0.5484,0.5457,0.5476,0.5462,0.5434,0.5469,0.5446,0.5449,0.5478,0.5514,0.5519,0.5524,0.5579,0.559,0.56,0,0,0,0,0,0,0.5523,0.55,0.5481,0.552,0.5517,0.55,0.5523,0.5498,0.5503,0.5497,0.5466,0.5464,0.5496,0.549,0.5464,0.5524,0.5487,0.5492,0.5527,0.5538,0.5547,0.5547,0.5415,0,0,0,0,0,0.5541,0.5555,0.5535,0.5572,0.5571,0.5547,0.5553,0.5533,0.5529,0.5528,0.5516,0.5513,0.5523,0.553,0.5539,0.5581,0.5577,0.5603,0.5611,0.5619,0.5624,0.5643,0.5654,0.5542,0.5542,0.5542,0,0,0.5579,0.5569,0.558,0.5584,0.5579,0.5594,0.5547,0.5565,0.5576,0.5531,0.5556,0.5548,0.5542,0.5577,0.5592,0.5573,0.5654,0.5625,0.5631,0.5632,0.5649,0.566,0.5669,0.5545,0.5544,0.5544,0,0,0.5656,0.565,0.5679,0.5674,0.5667,0.565,0.5657,0.5643,0.5635,0.566,0.5626,0.5638,0.5656,0.5652,0.5653,0.5725,0.5699,0.5729,0.5775,0.5794,0.5803,0.5811,0.5834,0.5844,0.5734,0.5734,0.5734,0,0.5705,0.5726,0.5697,0.5716,0.5718,0.5677,0.5705,0.5702,0.5698,0.57,0.5679,0.5698,0.5692,0.5724,0.5741,0.5744,0.5749,0.573,0.5804,0.5812,0.5818,0.584,0.585,0.5738,0.5737,0.5737,0.5737,0,0.5784,0.5799,0.5823,0.5819,0.5823,0.5847,0.5821,0.5829,0.5809,0.5794,0.5818,0.5809,0.5813,0.5819,0.58,0.5848,0.5836,0.581,0.5771,0.5833,0.5853,0.5862,0.5743,0.5742,0.5741,0.574,0,0,0.5901,0.5879,0.5888,0.5884,0.5872,0.5883,0.5904,0.5907,0.5913,0.5912,0.5927,0.5942,0.5917,0.5918,0.5898,0.5915,0.5969,0.5886,0.5885,0.59,0.6019,0.6038,0.6048,0.5952,0.5953,0.5955,0.6019,0,0.5973,0.6007,0.5981,0.602,0.6032,0.5991,0.6009,0.6003,0.599,0.5998,0.5983,0.5993,0.596,0.596,0.5975,0.596,0.5993,0.5955,0.5965,0.5966,0.5967,0.6059,0.608,0.6141,0.6027,0.6028,0.6029,0,0.6062,0.6062,0.6102,0.6084,0.6088,0.6105,0.6104,0.6112,0.6104,0.6093,0.6092,0.6067,0.6085,0.6047,0.6071,0.6046,0.6048,0.6041,0.6043,0.6042,0.6001,0.6059,0.616,0.6168,0.6042,0.6041,0.604,0,0.614,0.6151,0.6175,0.6173,0.6154,0.6166,0.6159,0.6149,0.6151,0.615,0.6151,0.6153,0.6154,0.6156,0.613,0.6106,0.6156,0.6118,0.6146,0.6147,0.6159,0.6158,0.6259,0.6163,0.6162,0.6162,0.6162,0,0.6222,0.6247,0.6209,0.6224,0.6251,0.622,0.6247,0.6235,0.6226,0.6237,0.6203,0.6214,0.6181,0.6188,0.6169,0.619,0.6191,0.6181,0.6176,0.6184,0.6185,0.6184,0.6179,0.6165,0.6164,0.6164,0.6163,0,0.6314,0.629,0.6313,0.6293,0.6288,0.6308,0.629,0.6302,0.6286,0.63,0.6302,0.6276,0.6282,0.6257,0.6261,0.6247,0.6278,0.6266,0.6281,0.6276,0.6306,0.6303,0.6409,0.6421,0.6318,0.632,0.632,0,0.6367,0.6385,0.6366,0.637,0.6364,0.6373,0.6374,0.6344,0.6347,0.6338,0.6351,0.6354,0.6356,0.6368,0.6349,0.635,0.6337,0.6374,0.6337,0.6344,0.6335,0.6334,0.6334,0.6382,0.6383,0.6384,0.6385,0,0.6463,0.645,0.6453,0.6452,0.6455,0.6453,0.6449,0.6455,0.6422,0.6427,0.6433,0.6434,0.6435,0.6439,0.6436,0.6427,0.64,0.6397,0.6403,0.6411,0.6418,0.6412,0.63,0.6394,0.6393,0.6393,0.6392,0.6392,0.6536,0.6549,0.6537,0.6541,0.6534,0.6531,0.654,0.6524,0.6528,0.6527,0.6509,0.6518,0.6506,0.6499,0.6493,0.6499,0.6482,0.6492,0.6494,0.6496,0.6501,0.6418,0.6499,0.6499,0.6498,0.6498,0.6498,0,0.6628,0.6618,0.6622,0.6616,0.662,0.6593,0.6587,0.6591,0.6599,0.6591,0.6592,0.6597,0.66,0.6581,0.658,0.6588,0.6576,0.6589,0.6588,0.6586,0.6517,0.6511,0.6599,0.6599,0.6599,0.6599,0.6599,0.6599,0.6676,0.6696,0.6681,0.6697,0.6686,0.6694,0.6692,0.6688,0.6681,0.6689,0.669,0.6677,0.6664,0.6662,0.6662,0.6657,0.6657,0.6675,0.6664,0.6601,0.6591,0.6581,0.6575,0.6676,0.6676,0.6732,0.6732,0.6733]}]]